Date String (YYYY-MM-DD hh:mm:ss) UTC,Instrument flags,Ambient pressure (hPa),Sample flow (lpm),Bypass flow (lpm),Sample temperature (°C),Ambient temperature (°C),ASC tube jacket temperature (°C),LED temperature (°C),Box temperature (°C),Sample RH (%),Span deviation,Mass concentration (μg/m³),Mass concentration (μg/m³),Mass concentration (μg/m³)
DateTimeUTC,F1_M11,P_M11,Q1_M11,Q2_M11,T1_M11,T2_M11,T3_M11,T4_M11,T5_M11,U1_M11,ZSPAN_M11,X2_M11,X0_M11,X1_M11
2022-10-23 11:00:00,,0804.1,5.00,0.00,29.9,28.3,00.0,38.7,31.7,07.8,0000.0,0002.46,0009.33,0001.64
2022-10-23 11:01:00,,0804.1,4.99,0.00,29.9,28.3,00.0,38.7,31.7,08.0,0000.0,0002.36,0009.41,0001.59
2022-10-23 11:02:00,,0804.2,5.02,0.00,29.9,28.2,00.0,38.7,31.7,08.3,0000.0,0002.25,0009.52,0001.55
2022-10-23 11:03:00,,0804.2,4.99,0.00,29.9,28.2,00.0,38.7,31.7,08.1,0000.0,0002.20,0009.72,0001.52
2022-10-23 11:04:00,,0804.2,5.00,0.00,29.9,28.2,00.0,38.7,31.7,08.0,0000.0,0002.14,0009.54,0001.49
2022-10-23 11:05:00,,0804.3,5.02,0.00,29.9,28.2,00.0,38.7,31.7,07.9,0000.0,0002.08,0009.22,0001.47
2022-10-23 11:06:00,,0804.3,5.00,0.00,29.8,28.1,00.0,38.7,31.6,07.9,0000.0,0002.02,0008.47,0001.44
2022-10-23 11:07:00,,0804.2,4.99,0.00,29.8,28.1,00.0,38.7,31.6,08.0,0000.0,0001.95,0007.56,0001.42
2022-10-23 11:08:00,,0804.2,5.00,0.00,29.8,28.1,00.0,38.7,31.6,08.0,0000.0,0001.94,0006.98,0001.40
2022-10-23 11:09:00,,0804.2,5.00,0.00,29.8,28.1,00.0,38.7,31.6,08.0,0000.0,0001.98,0006.13,0001.40
2022-10-23 11:10:00,,0804.2,4.99,0.00,29.8,28.1,00.0,38.7,31.6,07.9,0000.0,0001.97,0006.14,0001.40
2022-10-23 11:11:00,,0804.1,4.99,0.00,29.8,28.1,00.0,38.7,31.6,07.9,0000.0,0001.95,0005.48,0001.39
2022-10-23 11:12:00,,0804.1,5.02,0.00,29.8,28.2,00.0,38.7,31.6,08.0,0000.0,0001.98,0005.90,0001.39
2022-10-23 11:13:00,,0804.1,5.00,0.00,29.8,28.2,00.0,38.7,31.6,07.9,0000.0,0002.00,0005.66,0001.42
2022-10-23 11:14:00,,0804.1,5.00,0.00,29.8,28.2,00.0,38.7,31.6,07.9,0000.0,0002.01,0005.12,0001.45
2022-10-23 11:15:00,,0804.2,4.99,0.00,29.8,28.2,00.0,38.7,31.6,07.9,0000.0,0002.02,0005.00,0001.47
2022-10-23 11:16:00,,0804.2,5.02,0.00,29.8,28.2,00.0,38.7,31.7,07.9,0000.0,0002.07,0005.14,0001.50
2022-10-23 11:17:00,,0804.2,4.99,0.00,29.8,28.2,00.0,38.7,31.7,07.9,0000.0,0002.10,0005.17,0001.51
2022-10-23 11:18:00,,0804.2,4.99,0.00,29.8,28.3,00.0,38.7,31.7,08.0,0000.0,0002.13,0005.14,0001.52
2022-10-23 11:19:00,,0804.2,5.00,0.00,29.8,28.2,00.0,38.7,31.7,08.0,0000.0,0002.18,0004.95,0001.54
2022-10-23 11:20:00,,0804.2,5.02,0.00,29.8,28.2,00.0,38.7,31.7,08.0,0000.0,0002.19,0005.01,0001.55
2022-10-23 11:21:00,,0804.2,4.99,0.00,29.8,28.2,00.0,38.7,31.7,08.0,0000.0,0002.16,0005.14,0001.55
2022-10-23 11:22:00,,0804.2,5.00,0.00,29.8,28.2,00.0,38.7,31.7,08.1,0000.0,0002.22,0005.44,0001.56
2022-10-23 11:23:00,,0804.2,4.99,0.00,29.8,28.2,00.0,38.7,31.7,08.3,0000.0,0002.25,0004.81,0001.55
2022-10-23 11:24:00,,0804.2,5.03,0.00,29.8,28.1,00.0,38.7,31.6,08.3,0000.0,0002.24,0004.90,0001.53
2022-10-23 11:25:00,,0804.2,4.99,0.00,29.8,28.1,00.0,38.7,31.6,08.3,0000.0,0002.24,0005.69,0001.49
2022-10-23 11:26:00,,0804.2,4.99,0.00,29.8,28.1,00.0,38.7,31.6,08.3,0000.0,0002.29,0005.99,0001.46
2022-10-23 11:27:00,,0804.2,5.00,0.00,29.8,28.1,00.0,38.7,31.6,08.3,0000.0,0002.27,0006.03,0001.42
2022-10-23 11:28:00,,0804.2,5.02,0.00,29.8,28.1,00.0,38.7,31.6,08.5,0000.0,0002.25,0006.03,0001.39
2022-10-23 11:29:00,,0804.3,5.00,0.00,29.8,28.2,00.0,38.7,31.6,08.6,0000.0,0002.21,0005.83,0001.37
2022-10-23 11:30:00,,0804.2,5.00,0.00,29.8,28.2,00.0,38.7,31.6,08.6,0000.0,0002.12,0006.10,0001.32
2022-10-23 11:31:00,,0804.2,4.99,0.00,29.8,28.2,00.0,38.7,31.7,08.5,0000.0,0002.04,0005.75,0001.29
2022-10-23 11:32:00,,0804.2,5.01,0.00,29.8,28.2,00.0,38.7,31.7,08.3,0000.0,0002.02,0006.02,0001.27
2022-10-23 11:33:00,,0804.3,5.00,0.00,29.8,28.2,00.0,38.7,31.7,08.2,0000.0,0001.94,0006.73,0001.24
2022-10-23 11:34:00,,0804.2,4.99,0.00,29.8,28.2,00.0,38.7,31.7,08.2,0000.0,0001.92,0007.54,0001.24
2022-10-23 11:35:00,,0804.2,5.00,0.00,29.8,28.3,00.0,38.7,31.7,08.1,0000.0,0001.94,0007.40,0001.25
2022-10-23 11:36:00,,0804.2,4.99,0.00,29.8,28.3,00.0,38.7,31.6,08.1,0000.0,0002.02,0007.83,0001.28
2022-10-23 11:37:00,,0804.2,5.02,0.00,29.8,28.2,00.0,38.7,31.6,08.2,0000.0,0001.99,0008.05,0001.29
2022-10-23 11:38:00,,0804.2,4.99,0.00,29.8,28.2,00.0,38.7,31.7,08.3,0000.0,0001.94,0007.98,0001.30
2022-10-23 11:39:00,,0804.3,5.00,0.00,29.8,28.2,00.0,38.7,31.7,08.4,0000.0,0001.98,0008.03,0001.30
2022-10-23 11:40:00,,0804.2,4.99,0.00,29.8,28.2,00.0,38.7,31.7,08.3,0000.0,0002.00,0007.97,0001.29
2022-10-23 11:41:00,,0804.3,5.02,0.00,29.8,28.2,00.0,38.7,31.7,08.3,0000.0,0002.01,0008.80,0001.29
2022-10-23 11:42:00,,0804.3,4.99,0.00,29.8,28.2,00.0,38.7,31.7,08.6,0000.0,0002.04,0009.47,0001.28
2022-10-23 11:43:00,,0804.3,4.99,0.00,29.8,28.2,00.0,38.7,31.7,08.6,0000.0,0002.08,0009.37,0001.28
2022-10-23 11:44:00,,0804.3,5.01,0.00,29.8,28.1,00.0,38.7,31.7,08.5,0000.0,0002.11,0009.00,0001.28
2022-10-23 11:45:00,,0804.3,4.99,0.00,29.8,28.1,00.0,38.7,31.6,08.4,0000.0,0002.06,0008.42,0001.26
2022-10-23 11:46:00,,0804.3,5.02,0.00,29.8,28.1,00.0,38.7,31.6,08.5,0000.0,0002.02,0008.38,0001.25
2022-10-23 11:47:00,,0804.3,4.99,0.00,29.8,28.1,00.0,38.7,31.6,08.5,0000.0,0001.98,0007.84,0001.23
2022-10-23 11:48:00,,0804.3,5.00,0.00,29.8,28.1,00.0,38.7,31.6,08.5,0000.0,0001.99,0007.52,0001.22
2022-10-23 11:49:00,,0804.3,4.99,0.00,29.8,28.1,00.0,38.7,31.6,08.5,0000.0,0002.00,0007.53,0001.22
2022-10-23 11:50:00,,0804.2,5.01,0.00,29.8,28.1,00.0,38.7,31.6,08.5,0000.0,0001.96,0007.54,0001.22
2022-10-23 11:51:00,,0804.2,4.99,0.00,29.8,28.0,00.0,38.7,31.6,08.6,0000.0,0001.97,0007.56,0001.22
2022-10-23 11:52:00,,0804.2,5.01,0.00,29.8,28.0,00.0,38.7,31.5,08.6,0000.0,0002.02,0005.89,0001.23
2022-10-23 11:53:00,,0804.2,5.00,0.00,29.8,28.0,00.0,38.7,31.5,08.4,0000.0,0002.02,0004.80,0001.23
2022-10-23 11:54:00,,0804.2,4.99,0.00,29.8,28.0,00.0,38.7,31.5,08.4,0000.0,0001.98,0004.45,0001.22
2022-10-23 11:55:00,,0804.2,5.00,0.00,29.8,28.0,00.0,38.7,31.5,08.3,0000.0,0001.95,0004.16,0001.22
2022-10-23 11:56:00,,0804.2,5.01,0.00,29.7,28.0,00.0,38.7,31.5,08.3,0000.0,0002.06,0004.79,0001.22
2022-10-23 11:57:00,,0804.2,4.99,0.00,29.7,28.0,00.0,38.7,31.5,08.3,0000.0,0002.05,0005.92,0001.22
2022-10-23 11:58:00,,0804.2,5.01,0.00,29.7,28.0,00.0,38.6,31.5,08.3,0000.0,0002.03,0005.83,0001.22
2022-10-23 11:59:00,,0804.2,5.00,0.00,29.7,27.9,00.0,38.6,31.5,08.3,0000.0,0002.03,0006.59,0001.21
